[[{"header":{"parameterUnit":"m.s-1","parameterCategory":1,"la1":30.2991,"la2":30.254,"lo1":-89.0895,"lo2":-89.0444,"dy":0.0017,"dx":0.0017,"nx":28,"ny":28,"refTime":"2025-06-15T21:00:00:Z","depth":0,"parameterNumber":2,"parameterNumberName":"U-component_of_WINDS"},"data":[0,0,0,0,0,0,0,0,0,0,0,0,0,0,0,0,0,0,0,0,0,0,0,0,0,0,0,0,0,0,0,0,0,0,0,0,0,0,0,0,0,0,0,0,0,0,0,0,0,0,0,0,0,0,0,0,0,0,1.2362,1.2365,0,1.2597,1.2599,1.2602,1.2683,1.2682,1.2681,1.268,1.2923,1.293,1.2937,0,0,0,0,0,0,0,0,0,0,0,0,0,1.1986,1.1993,1.2362,1.2365,1.2368,1.2596,1.26,1.2603,1.2683,1.2682,1.2681,1.268,1.2921,1.2929,1.2938,0,0,0,0,0,0,0,0,0,0,0,0,0,1.2178,1.1995,1.2362,1.2436,1.2445,1.2596,1.26,1.2604,1.2684,1.2682,1.2681,1.2679,1.2918,1.2928,1.2939,1.3035,0,0,1.2973,1.2978,0,0,0,0,0,0,0,0,1.2167,1.2192,1.2422,1.2431,1.2441,1.2609,1.2556,1.2748,1.2684,1.2593,1.268,1.2679,1.282,1.2839,1.2886,1.3046,1.3056,1.2974,1.298,1.2985,1.2988,0,0,0,0,0,0,0,1.2154,1.2182,1.2455,1.2425,1.2437,1.2458,1.2484,1.2593,1.2711,1.2601,1.2607,1.2634,1.2825,1.2875,1.2892,1.306,1.2973,1.2983,1.299,1.2994,1.3311,1.3313,0,0,0,0,0,0,1.2128,1.217,1.2448,1.2462,1.2298,1.2466,1.2494,1.2557,1.271,1.2732,1.2635,1.2637,1.2857,1.2879,1.2901,1.3024,1.2985,1.2995,1.3002,1.3309,1.3311,1.3313,0,0,0,0,0,0,1.2119,1.2152,1.2438,1.2318,1.2356,1.2474,1.2543,1.2562,1.2612,1.2736,1.2758,1.2664,1.2857,1.2886,1.3001,1.3033,1.3,1.301,1.3307,1.331,1.3312,1.3269,0,0,0,0,0,0,1.2108,1.2148,1.2185,1.2318,1.2362,1.2533,1.2545,1.2568,1.2631,1.2636,1.2769,1.279,1.2858,1.2984,1.3012,1.3048,1.3019,1.3305,1.3308,1.3311,1.3268,1.327,1.3271,0,0,0,0,0,1.2094,1.2164,1.2186,1.2219,1.2411,1.2535,1.256,1.2636,1.2633,1.2672,1.2751,1.2786,1.3025,1.2995,1.3027,1.3067,1.3303,1.3307,1.3311,1.3267,1.327,1.3271,0,0,0,0,0,0,1.2032,1.2183,1.2209,1.2324,1.2416,1.2548,1.2599,1.2636,1.2731,1.2732,1.2823,1.2852,1.2961,1.3025,1.2989,1.3168,1.3166,1.3176,1.3122,1.3125,1.3126,1.3109,1.3028,0,0,0,0,0,1.2031,1.2119,1.2246,1.2335,1.238,1.2481,1.2538,1.2588,1.2688,1.2727,1.2815,1.2911,1.3008,1.307,1.3165,1.3277,1.3308,1.332,1.3322,1.3323,1.3331,1.3396,1.3403,1.3327,1.3327,1.3327,0,0,1.2032,1.2125,1.2174,1.2325,1.2402,1.2491,1.2513,1.2607,1.2675,1.2742,1.2856,1.2924,1.3037,1.315,1.3205,1.3208,1.3359,1.3328,1.3328,1.3336,1.3401,1.3408,1.3415,1.333,1.3329,1.3329,0,0,1.2078,1.2156,1.2239,1.2316,1.2432,1.25,1.2519,1.2646,1.2694,1.2809,1.2862,1.2943,1.3108,1.3187,1.3248,1.3323,1.3359,1.3351,1.3361,1.3423,1.3429,1.3435,1.3463,1.3471,1.3359,1.3359,1.3359,0,1.2063,1.22,1.2278,1.2369,1.2434,1.2497,1.2583,1.2654,1.2795,1.2839,1.2839,1.3047,1.3128,1.3261,1.3279,1.3327,1.3353,1.3337,1.3422,1.3428,1.3435,1.3463,1.3473,1.3358,1.3358,1.3358,1.3358,0,1.2177,1.227,1.2324,1.2458,1.2529,1.2617,1.2709,1.2771,1.2815,1.2882,1.2999,1.3098,1.3215,1.325,1.3294,1.339,1.3388,1.3404,1.3404,1.3439,1.3467,1.3478,1.3355,1.3356,1.3356,1.3357,0,0,1.2192,1.2368,1.2386,1.2448,1.2581,1.2655,1.2746,1.286,1.2912,1.3007,1.3086,1.3223,1.3239,1.3308,1.3361,1.3416,1.347,1.3425,1.3429,1.3431,1.3583,1.3571,1.3582,1.3494,1.3496,1.3498,1.3574,0,1.2256,1.242,1.2493,1.2625,1.2713,1.2774,1.2853,1.2943,1.3008,1.3093,1.3165,1.3261,1.3274,1.3316,1.3372,1.3451,1.3502,1.3447,1.3569,1.3573,1.3541,1.3597,1.3585,1.3652,1.3585,1.3587,1.3588,0,1.2353,1.2448,1.2589,1.2711,1.2751,1.282,1.2931,1.301,1.3114,1.3158,1.3235,1.3285,1.3384,1.3376,1.3513,1.3474,1.3528,1.3574,1.3579,1.3594,1.3584,1.3615,1.3675,1.3685,1.3606,1.3604,1.3603,0,1.2351,1.2514,1.262,1.2671,1.2816,1.2864,1.2926,1.3029,1.3093,1.3189,1.3232,1.3338,1.3397,1.3478,1.3556,1.3543,1.3686,1.3685,1.3726,1.3724,1.3755,1.3752,1.3826,1.3787,1.3787,1.3787,1.3786,0,1.2417,1.25,1.2621,1.2686,1.2781,1.2864,1.2957,1.3024,1.3114,1.3194,1.3253,1.3327,1.3425,1.3511,1.3573,1.3678,1.3703,1.3742,1.3758,1.3738,1.3733,1.3776,1.3774,1.3789,1.3789,1.3788,1.3788,0,1.2431,1.2515,1.2634,1.2762,1.2796,1.2861,1.297,1.3036,1.3103,1.3203,1.3231,1.3337,1.3441,1.3527,1.3664,1.3706,1.3815,1.3833,1.378,1.3789,1.3826,1.3821,1.393,1.3949,1.3896,1.3896,1.3897,0,1.2468,1.2534,1.2668,1.2725,1.2787,1.2879,1.2944,1.3028,1.3093,1.3216,1.3267,1.3376,1.3467,1.3631,1.3721,1.3826,1.3847,1.3878,1.3863,1.3841,1.3849,1.3845,1.3852,1.388,1.388,1.388,1.388,0,1.2524,1.2563,1.2654,1.2761,1.2837,1.2924,1.3014,1.3057,1.3158,1.3228,1.3336,1.3406,1.3546,1.3653,1.3768,1.3833,1.3874,1.3883,1.3899,1.388,1.3847,1.3867,1.3785,1.3881,1.3881,1.3881,1.3881,1.3881,1.2553,1.2614,1.2718,1.2819,1.2894,1.2977,1.3045,1.312,1.3211,1.3331,1.3374,1.3484,1.3587,1.3745,1.3811,1.3898,1.3903,1.3925,1.3931,1.3935,1.3933,1.3832,1.3919,1.3919,1.3919,1.3919,1.392,0,1.2614,1.2683,1.2775,1.2898,1.2976,1.3006,1.3107,1.3171,1.3267,1.3359,1.3447,1.3571,1.3675,1.3772,1.3881,1.3933,1.3954,1.3959,1.3957,1.3971,1.3922,1.3899,1.394,1.394,1.394,1.394,1.394,1.394,1.2654,1.2761,1.2811,1.2956,1.3025,1.3133,1.3188,1.3265,1.3338,1.3473,1.356,1.3622,1.3717,1.3833,1.393,1.3956,1.3994,1.3994,1.4025,1.3978,1.3975,1.3972,1.395,1.4001,1.4001,1.4067,1.4068,1.4068]},{"header":{"parameterUnit":"m.s-1","parameterCategory":1,"la1":30.2991,"la2":30.254,"lo1":-89.0895,"lo2":-89.0444,"dy":0.0017,"dx":0.0017,"nx":28,"ny":28,"refTime":"2025-06-15T21:00:00:Z","depth":0,"parameterNumber":3,"parameterNumberName":"V-component_of_WINDS"},"data":[0,0,0,0,0,0,0,0,0,0,0,0,0,0,0,0,0,0,0,0,0,0,0,0,0,0,0,0,0,0,0,0,0,0,0,0,0,0,0,0,0,0,0,0,0,0,0,0,0,0,0,0,0,0,0,0,0,0,4.3519,4.352,0,4.3603,4.3604,4.3605,4.3585,4.3584,4.3582,4.3581,4.3665,4.3668,4.3672,0,0,0,0,0,0,0,0,0,0,0,0,0,4.3342,4.3345,4.3519,4.352,4.3521,4.3603,4.3604,4.3605,4.3586,4.3584,4.3582,4.358,4.3663,4.3668,4.3672,0,0,0,0,0,0,0,0,0,0,0,0,0,4.3421,4.3346,4.3519,4.3522,4.3523,4.3603,4.3604,4.3605,4.3586,4.3584,4.3581,4.3579,4.3662,4.3667,4.3673,4.3755,0,0,4.369,4.3692,0,0,0,0,0,0,0,0,4.3417,4.3428,4.352,4.3522,4.3523,4.3581,4.3572,4.3656,4.3587,4.3562,4.3581,4.3578,4.3639,4.3646,4.3667,4.3759,4.3763,4.369,4.3694,4.3696,4.3698,0,0,0,0,0,0,0,4.3411,4.3424,4.3552,4.3521,4.3523,4.3518,4.3527,4.3588,4.3613,4.3564,4.3563,4.3573,4.3639,4.3662,4.3669,4.3764,4.369,4.3695,4.3699,4.3701,4.3929,4.3932,0,0,0,0,0,0,4.3405,4.342,4.355,4.3555,4.3463,4.3523,4.3533,4.3565,4.3612,4.3617,4.3575,4.3572,4.3653,4.3662,4.3672,4.3773,4.3696,4.3701,4.3705,4.3927,4.393,4.3933,0,0,0,0,0,0,4.3401,4.3417,4.3546,4.3487,4.3503,4.3529,4.3565,4.3568,4.3591,4.362,4.3624,4.3594,4.3652,4.3664,4.3735,4.3775,4.3704,4.3709,4.3923,4.3928,4.3931,4.3975,0,0,0,0,0,0,4.3396,4.3415,4.3447,4.3488,4.3506,4.3609,4.3567,4.3571,4.36,4.3597,4.3639,4.3644,4.3651,4.3727,4.3741,4.3782,4.3713,4.392,4.3925,4.393,4.397,4.398,4.3988,0,0,0,0,0,4.339,4.3455,4.3449,4.3465,4.3547,4.3611,4.3622,4.3629,4.3604,4.3636,4.3655,4.3642,4.3768,4.3734,4.375,4.3793,4.3918,4.3924,4.393,4.3966,4.3978,4.3988,0,0,0,0,0,0,4.3417,4.346,4.3454,4.3534,4.357,4.3608,4.3649,4.3642,4.3684,4.3679,4.3686,4.3695,4.3769,4.3787,4.3749,4.3876,4.3839,4.3849,4.3861,4.3873,4.3882,4.3877,4.3718,0,0,0,0,0,4.3433,4.3482,4.3517,4.3585,4.3603,4.3623,4.3651,4.3654,4.369,4.3705,4.3729,4.3764,4.3812,4.3843,4.3888,4.3972,4.3981,4.4009,4.4018,4.4026,4.4034,4.4081,4.4095,4.3953,4.3953,4.3953,0,0,4.3465,4.3495,4.3526,4.3591,4.3618,4.3669,4.3635,4.369,4.3728,4.3713,4.3782,4.3801,4.3841,4.3919,4.3955,4.3937,4.4075,4.4033,4.4039,4.4044,4.4089,4.4102,4.4114,4.3957,4.3956,4.3956,0,0,4.3551,4.3578,4.3639,4.3667,4.3709,4.3723,4.3737,4.3777,4.3789,4.3859,4.3849,4.3894,4.3975,4.4005,4.403,4.4128,4.4119,4.4143,4.4191,4.4237,4.4248,4.4258,4.4295,4.4308,4.4151,4.4151,4.4151,0,4.3586,4.3663,4.367,4.3727,4.3756,4.3746,4.3807,4.3834,4.3889,4.3909,4.3889,4.3992,4.4018,4.4104,4.4128,4.4148,4.4165,4.4139,4.4246,4.4256,4.4266,4.4301,4.4314,4.4154,4.4153,4.4153,4.4153,0,4.3705,4.3759,4.3802,4.3857,4.3891,4.395,4.3966,4.3999,4.3999,4.4014,4.4086,4.4117,4.4169,4.4189,4.4189,4.4275,4.4263,4.4244,4.4208,4.4282,4.4315,4.4328,4.4158,4.4157,4.4156,4.4155,0,0,4.3811,4.387,4.3886,4.3912,4.3958,4.3999,4.4057,4.4109,4.4139,4.4176,4.4226,4.4296,4.4279,4.4308,4.4311,4.4351,4.4429,4.4327,4.4328,4.4347,4.4527,4.4543,4.4558,4.4422,4.4424,4.4426,4.4525,0,4.3903,4.4007,4.4015,4.4109,4.4159,4.415,4.4201,4.4234,4.425,4.4295,4.4311,4.4362,4.4335,4.4353,4.4391,4.4411,4.4465,4.4404,4.4469,4.4471,4.4461,4.4575,4.4591,4.4683,4.4537,4.454,4.4541,0,4.4024,4.4067,4.4166,4.4207,4.4229,4.4274,4.4323,4.4366,4.4404,4.4413,4.4446,4.4443,4.4503,4.4463,4.4546,4.4504,4.4531,4.4545,4.4548,4.4556,4.4512,4.4588,4.4712,4.4726,4.4561,4.456,4.4558,0,4.4094,4.4177,4.4247,4.4269,4.4318,4.435,4.4372,4.4408,4.4439,4.4481,4.4502,4.455,4.4577,4.4614,4.4625,4.4594,4.4708,4.4669,4.4717,4.4717,4.4743,4.4742,4.4875,4.4757,4.4757,4.4757,4.4757,0,4.4197,4.4258,4.428,4.4324,4.4392,4.4401,4.4468,4.4488,4.452,4.4567,4.4561,4.4605,4.4615,4.4662,4.467,4.4738,4.475,4.4759,4.4761,4.4761,4.476,4.478,4.4774,4.476,4.476,4.4759,4.4758,0,4.4287,4.4304,4.4381,4.4421,4.4433,4.4482,4.4516,4.4558,4.4572,4.4632,4.4647,4.467,4.4724,4.4738,4.4802,4.4808,4.4889,4.4884,4.4877,4.4877,4.4926,4.4922,4.5078,4.51,4.4966,4.4967,4.4968,0,4.4353,4.44,4.4446,4.4478,4.4501,4.4552,4.4584,4.4594,4.4628,4.4675,4.4712,4.4765,4.4809,4.4896,4.4918,4.4967,4.4964,4.5015,4.4971,4.497,4.4967,4.4965,4.497,4.5024,4.5026,4.5027,4.5028,0,4.4468,4.4474,4.4521,4.4572,4.4611,4.4651,4.4689,4.4715,4.473,4.4768,4.4825,4.4858,4.4925,4.4978,4.5028,4.5049,4.5042,4.5041,4.5056,4.5057,4.5052,4.5057,4.4902,4.5038,4.5037,4.5036,4.5036,4.5035,4.4549,4.4592,4.4631,4.4684,4.4714,4.4751,4.4793,4.4813,4.486,4.4916,4.4918,4.498,4.5017,4.5083,4.5107,4.5155,4.5139,4.516,4.5165,4.517,4.5176,4.5043,4.5164,4.5163,4.5163,4.5163,4.5163,0,4.4666,4.4691,4.474,4.4794,4.4836,4.4826,4.4867,4.4903,4.4958,4.4993,4.5037,4.5101,4.5153,4.518,4.5231,4.5264,4.5262,4.5278,4.5276,4.5282,4.5186,4.5169,4.5279,4.5279,4.5279,4.5279,4.5279,4.5279,4.4731,4.4803,4.4814,4.4901,4.4925,4.4987,4.5012,4.5045,4.5074,4.5147,4.5191,4.5208,4.524,4.5294,4.5341,4.5347,4.5367,4.5385,4.539,4.53,4.5288,4.5277,4.5262,4.5389,4.5389,4.5482,4.5483,4.5484]}]]